Time,TemperatureF,DewpointF,PressureIn,WindDirection,WindDirectionDegrees,WindSpeedMPH,WindSpeedGustMPH,Humidity,HourlyPrecipIn,Conditions,Clouds,dailyrainin,SolarRadiationWatts/m^2,SoftwareType,DateUTC
2013-04-14 00:02:00,36.0,26.0,-100.00,WNW,286,6.0,14.0,66,0.00,,,0.01,61.000000,,2013-04-14 00:02:00,
2013-04-14 01:12:00,34.0,26.0,-100.00,West,281,3.0,9.0,72,-99.99,,,0.00,3.000000,,2013-04-14 01:12:00,
2013-04-14 01:42:00,34.0,26.0,-100.00,West,281,3.0,9.0,72,-99.99,,,0.00,3.000000,,2013-04-14 01:42:00,
2013-04-14 01:53:00,34.0,26.0,-100.00,West,281,3.0,9.0,72,-99.99,,,0.00,3.000000,,2013-04-14 01:53:00,
2013-04-14 02:02:00,34.0,26.0,-100.00,West,281,3.0,9.0,72,-99.99,,,0.00,3.000000,,2013-04-14 02:02:00,
2013-04-14 02:12:00,33.0,27.0,-100.00,NNW,331,3.0,7.0,79,0.00,,,0.00,0.000000,,2013-04-14 02:12:00,
2013-04-14 02:33:00,33.0,27.0,-100.00,NNW,331,3.0,7.0,79,0.00,,,0.00,0.000000,,2013-04-14 02:33:00,
2013-04-14 02:43:00,33.0,27.0,-100.00,NNW,331,3.0,7.0,79,0.00,,,0.00,0.000000,,2013-04-14 02:43:00,
2013-04-14 02:53:00,33.0,27.0,-100.00,NNW,331,3.0,7.0,79,0.00,,,0.00,0.000000,,2013-04-14 02:53:00,
2013-04-14 03:02:00,33.0,27.0,-100.00,NNW,331,3.0,7.0,79,0.00,,,0.00,0.000000,,2013-04-14 03:02:00,
2013-04-14 03:12:00,32.0,26.0,-100.00,West,273,0.0,5.0,79,0.00,,,0.00,0.000000,,2013-04-14 03:12:00,
2013-04-14 03:43:00,32.0,26.0,-100.00,West,273,0.0,5.0,79,0.00,,,0.00,0.000000,,2013-04-14 03:43:00,
2013-04-14 03:53:00,32.0,26.0,-100.00,West,273,0.0,5.0,79,0.00,,,0.00,0.000000,,2013-04-14 03:53:00,
2013-04-14 04:02:00,32.0,26.0,-100.00,West,273,0.0,5.0,79,0.00,,,0.00,0.000000,,2013-04-14 04:02:00,
2013-04-14 04:12:00,31.0,27.0,-100.00,NNE,25,0.0,0.0,84,0.00,,,0.00,0.000000,,2013-04-14 04:12:00,
2013-04-14 04:33:00,31.0,27.0,-100.00,NNE,25,0.0,0.0,84,0.00,,,0.00,0.000000,,2013-04-14 04:33:00,
2013-04-14 04:43:00,31.0,27.0,-100.00,NNE,25,0.0,0.0,84,0.00,,,0.00,0.000000,,2013-04-14 04:43:00,
2013-04-14 04:52:00,31.0,27.0,-100.00,NNE,25,0.0,0.0,84,0.00,,,0.00,0.000000,,2013-04-14 04:52:00,
2013-04-14 05:12:00,31.0,27.0,-100.00,SSW,213,0.0,0.0,84,0.00,,,0.00,0.000000,,2013-04-14 05:12:00,
2013-04-14 05:32:00,31.0,27.0,-100.00,SSW,213,0.0,0.0,84,0.00,,,0.00,0.000000,,2013-04-14 05:32:00,
2013-04-14 05:42:00,31.0,27.0,-100.00,SSW,213,0.0,0.0,84,0.00,,,0.00,0.000000,,2013-04-14 05:42:00,
2013-04-14 05:52:00,31.0,27.0,-100.00,SSW,213,0.0,0.0,84,0.00,,,0.00,0.000000,,2013-04-14 05:52:00,
2013-04-14 06:02:00,31.0,27.0,-100.00,SSW,213,0.0,0.0,84,0.00,,,0.00,0.000000,,2013-04-14 06:02:00,
2013-04-14 06:12:00,29.0,25.0,-100.00,SSE,152,0.0,4.0,85,0.00,,,0.00,0.000000,,2013-04-14 06:12:00,
2013-04-14 06:32:00,29.0,25.0,-100.00,SSE,152,0.0,4.0,85,0.00,,,0.00,0.000000,,2013-04-14 06:32:00,
2013-04-14 06:42:00,29.0,25.0,-100.00,SSE,152,0.0,4.0,85,0.00,,,0.00,0.000000,,2013-04-14 06:42:00,
2013-04-14 06:52:00,29.0,25.0,-100.00,SSE,152,0.0,4.0,85,0.00,,,0.00,0.000000,,2013-04-14 06:52:00,
2013-04-14 07:02:00,29.0,25.0,-100.00,SSE,152,0.0,4.0,85,0.00,,,0.00,0.000000,,2013-04-14 07:02:00,
2013-04-14 07:12:00,27.0,25.0,-100.00,East,87,0.0,0.0,91,0.00,,,0.00,0.000000,,2013-04-14 07:12:00,
2013-04-14 07:33:00,27.0,25.0,-100.00,East,87,0.0,0.0,91,0.00,,,0.00,0.000000,,2013-04-14 07:33:00,
2013-04-14 07:42:00,27.0,25.0,-100.00,East,87,0.0,0.0,91,0.00,,,0.00,0.000000,,2013-04-14 07:42:00,
2013-04-14 07:52:00,27.0,25.0,-100.00,East,87,0.0,0.0,91,0.00,,,0.00,0.000000,,2013-04-14 07:52:00,
2013-04-14 08:02:00,27.0,25.0,-100.00,East,87,0.0,0.0,91,0.00,,,0.00,0.000000,,2013-04-14 08:02:00,
2013-04-14 08:12:00,26.0,24.0,-100.00,East,82,0.0,0.0,91,0.00,,,0.00,0.000000,,2013-04-14 08:12:00,
2013-04-14 08:43:00,26.0,24.0,-100.00,East,82,0.0,0.0,91,0.00,,,0.00,0.000000,,2013-04-14 08:43:00,
2013-04-14 08:52:00,26.0,24.0,-100.00,East,82,0.0,0.0,91,0.00,,,0.00,0.000000,,2013-04-14 08:52:00,
2013-04-14 09:03:00,26.0,24.0,-100.00,East,82,0.0,0.0,91,0.00,,,0.00,0.000000,,2013-04-14 09:03:00,
2013-04-14 09:12:00,27.0,25.0,-100.00,NE,41,0.0,0.0,92,0.00,,,0.00,0.000000,,2013-04-14 09:12:00,
2013-04-14 09:43:00,27.0,25.0,-100.00,NE,41,0.0,0.0,92,0.00,,,0.00,0.000000,,2013-04-14 09:43:00,
2013-04-14 09:54:00,27.0,25.0,-100.00,NE,41,0.0,0.0,92,0.00,,,0.00,0.000000,,2013-04-14 09:54:00,
2013-04-14 10:03:00,27.0,25.0,-100.00,NE,41,0.0,0.0,92,0.00,,,0.00,0.000000,,2013-04-14 10:03:00,
2013-04-14 10:12:00,29.0,26.0,-100.00,SSE,160,0.0,2.0,90,0.00,,,0.00,0.000000,,2013-04-14 10:12:00,
2013-04-14 10:33:00,29.0,26.0,-100.00,SSE,160,0.0,2.0,90,0.00,,,0.00,0.000000,,2013-04-14 10:33:00,
2013-04-14 10:43:00,29.0,26.0,-100.00,SSE,160,0.0,2.0,90,0.00,,,0.00,0.000000,,2013-04-14 10:43:00,
2013-04-14 10:52:00,29.0,26.0,-100.00,SSE,160,0.0,2.0,90,0.00,,,0.00,0.000000,,2013-04-14 10:52:00,
2013-04-14 11:02:00,29.0,26.0,-100.00,SSE,160,0.0,2.0,90,0.00,,,0.00,0.000000,,2013-04-14 11:02:00,
2013-04-14 11:12:00,29.0,25.0,-100.00,East,81,2.0,4.0,83,0.00,,,0.00,0.000000,,2013-04-14 11:12:00,
2013-04-14 11:33:00,29.0,25.0,-100.00,East,81,2.0,4.0,83,0.00,,,0.00,0.000000,,2013-04-14 11:33:00,
2013-04-14 11:42:00,29.0,25.0,-100.00,East,81,2.0,4.0,83,0.00,,,0.00,0.000000,,2013-04-14 11:42:00,
2013-04-14 11:53:00,29.0,25.0,-100.00,East,81,2.0,4.0,83,0.00,,,0.00,0.000000,,2013-04-14 11:53:00,
2013-04-14 12:02:00,29.0,25.0,-100.00,East,81,2.0,4.0,83,0.00,,,0.00,0.000000,,2013-04-14 12:02:00,
2013-04-14 12:12:00,30.0,25.0,-100.00,ENE,70,3.0,7.0,81,0.00,,,0.00,10.000000,,2013-04-14 12:12:00,
2013-04-14 12:42:00,30.0,25.0,-100.00,ENE,70,3.0,7.0,81,0.00,,,0.00,10.000000,,2013-04-14 12:42:00,
2013-04-14 12:52:00,30.0,25.0,-100.00,ENE,70,3.0,7.0,81,0.00,,,0.00,10.000000,,2013-04-14 12:52:00,
2013-04-14 13:02:00,30.0,25.0,-100.00,ENE,70,3.0,7.0,81,0.00,,,0.00,10.000000,,2013-04-14 13:02:00,
2013-04-14 13:12:00,31.0,25.0,-100.00,ENE,69,5.0,11.0,77,0.00,,,0.00,57.000000,,2013-04-14 13:12:00,
2013-04-14 13:33:00,31.0,25.0,-100.00,ENE,69,5.0,11.0,77,0.00,,,0.00,57.000000,,2013-04-14 13:33:00,
2013-04-14 13:43:00,31.0,25.0,-100.00,ENE,69,5.0,11.0,77,0.00,,,0.00,57.000000,,2013-04-14 13:43:00,
2013-04-14 13:52:00,31.0,25.0,-100.00,ENE,69,5.0,11.0,77,0.00,,,0.00,57.000000,,2013-04-14 13:52:00,
2013-04-14 14:02:00,31.0,25.0,-100.00,ENE,69,5.0,11.0,77,0.00,,,0.00,57.000000,,2013-04-14 14:02:00,
2013-04-14 14:12:00,32.0,26.0,-100.00,East,84,7.0,12.0,77,0.00,,,0.00,61.000000,,2013-04-14 14:12:00,
2013-04-14 14:42:00,32.0,26.0,-100.00,East,84,7.0,12.0,77,0.00,,,0.00,61.000000,,2013-04-14 14:42:00,
2013-04-14 14:53:00,32.0,26.0,-100.00,East,84,7.0,12.0,77,0.00,,,0.00,61.000000,,2013-04-14 14:53:00,
2013-04-14 15:02:00,32.0,26.0,-100.00,East,84,7.0,12.0,77,0.00,,,0.00,61.000000,,2013-04-14 15:02:00,
2013-04-14 15:12:00,32.0,27.0,-100.00,East,87,7.0,16.0,81,0.00,,,0.00,91.000000,,2013-04-14 15:12:00,
2013-04-14 15:34:00,32.0,27.0,-100.00,East,87,7.0,16.0,81,0.00,,,0.00,91.000000,,2013-04-14 15:34:00,
2013-04-14 15:43:00,32.0,27.0,-100.00,East,87,7.0,16.0,81,0.00,,,0.00,91.000000,,2013-04-14 15:43:00,
2013-04-14 15:53:00,32.0,27.0,-100.00,East,87,7.0,16.0,81,0.00,,,0.00,91.000000,,2013-04-14 15:53:00,
2013-04-14 16:04:00,32.0,27.0,-100.00,East,87,7.0,16.0,81,0.00,,,0.00,91.000000,,2013-04-14 16:04:00,
2013-04-14 16:12:00,31.0,28.0,-100.00,ENE,78,6.0,13.0,87,0.00,,,0.00,57.000000,,2013-04-14 16:12:00,
2013-04-14 16:33:00,31.0,28.0,-100.00,ENE,78,6.0,13.0,87,0.00,,,0.00,57.000000,,2013-04-14 16:33:00,
2013-04-14 16:43:00,31.0,28.0,-100.00,ENE,78,6.0,13.0,87,0.00,,,0.00,57.000000,,2013-04-14 16:43:00,
2013-04-14 16:53:00,31.0,28.0,-100.00,ENE,78,6.0,13.0,87,0.00,,,0.00,57.000000,,2013-04-14 16:53:00,
2013-04-14 17:02:00,31.0,28.0,-100.00,ENE,78,6.0,13.0,87,0.00,,,0.00,57.000000,,2013-04-14 17:02:00,
2013-04-14 17:12:00,32.0,29.0,-100.00,ENE,76,7.0,15.0,90,0.00,,,0.00,111.000000,,2013-04-14 17:12:00,
2013-04-14 17:42:00,32.0,29.0,-100.00,ENE,76,7.0,15.0,90,0.00,,,0.00,111.000000,,2013-04-14 17:42:00,
2013-04-14 17:53:00,32.0,29.0,-100.00,ENE,76,7.0,15.0,90,0.00,,,0.00,111.000000,,2013-04-14 17:53:00,
2013-04-14 18:02:00,32.0,29.0,-100.00,ENE,76,7.0,15.0,90,0.00,,,0.00,111.000000,,2013-04-14 18:02:00,
2013-04-14 18:12:00,33.0,30.0,-100.00,East,82,11.0,20.0,89,0.00,,,0.00,159.000000,,2013-04-14 18:12:00,
2013-04-14 18:33:00,33.0,30.0,-100.00,East,82,11.0,20.0,89,0.00,,,0.00,159.000000,,2013-04-14 18:33:00,
2013-04-14 18:43:00,33.0,30.0,-100.00,East,82,11.0,20.0,89,0.00,,,0.00,159.000000,,2013-04-14 18:43:00,
2013-04-14 18:53:00,33.0,30.0,-100.00,East,82,11.0,20.0,89,0.00,,,0.00,159.000000,,2013-04-14 18:53:00,
2013-04-14 19:03:00,33.0,30.0,-100.00,East,82,11.0,20.0,89,0.00,,,0.00,159.000000,,2013-04-14 19:03:00,
2013-04-14 19:12:00,37.0,33.0,-100.00,ENE,71,10.0,19.0,86,0.00,,,0.00,244.000000,,2013-04-14 19:12:00,
2013-04-14 19:33:00,37.0,33.0,-100.00,ENE,71,10.0,19.0,86,0.00,,,0.00,244.000000,,2013-04-14 19:33:00,
2013-04-14 19:43:00,37.0,33.0,-100.00,ENE,71,10.0,19.0,86,0.00,,,0.00,244.000000,,2013-04-14 19:43:00,
2013-04-14 19:53:00,37.0,33.0,-100.00,ENE,71,10.0,19.0,86,0.00,,,0.00,244.000000,,2013-04-14 19:53:00,
2013-04-14 20:02:00,37.0,33.0,-100.00,ENE,71,10.0,19.0,86,0.00,,,0.00,244.000000,,2013-04-14 20:02:00,
2013-04-14 20:12:00,35.0,31.0,-100.00,East,86,10.0,21.0,84,0.01,,,0.01,309.000000,,2013-04-14 20:12:00,
2013-04-14 20:43:00,35.0,31.0,-100.00,East,86,10.0,21.0,84,0.01,,,0.01,309.000000,,2013-04-14 20:43:00,
2013-04-14 20:52:00,35.0,31.0,-100.00,East,86,10.0,21.0,84,0.01,,,0.01,309.000000,,2013-04-14 20:52:00,
2013-04-14 21:02:00,35.0,31.0,-100.00,East,86,10.0,21.0,84,0.01,,,0.01,309.000000,,2013-04-14 21:02:00,
2013-04-14 21:12:00,36.0,30.0,-100.00,East,89,11.0,22.0,80,0.00,,,0.01,197.000000,,2013-04-14 21:12:00,
2013-04-14 21:43:00,36.0,30.0,-100.00,East,89,11.0,22.0,80,0.00,,,0.01,197.000000,,2013-04-14 21:43:00,
2013-04-14 21:53:00,36.0,30.0,-100.00,East,89,11.0,22.0,80,0.00,,,0.01,197.000000,,2013-04-14 21:53:00,
2013-04-14 22:03:00,36.0,30.0,-100.00,East,89,11.0,22.0,80,0.00,,,0.01,197.000000,,2013-04-14 22:03:00,
2013-04-14 22:12:00,36.0,31.0,-100.00,East,87,10.0,19.0,82,0.00,,,0.01,119.000000,,2013-04-14 22:12:00,
2013-04-14 22:44:00,36.0,31.0,-100.00,East,87,10.0,19.0,82,0.00,,,0.01,119.000000,,2013-04-14 22:44:00,
2013-04-14 22:53:00,36.0,31.0,-100.00,East,87,10.0,19.0,82,0.00,,,0.01,119.000000,,2013-04-14 22:53:00,
2013-04-14 23:02:00,36.0,31.0,-100.00,East,87,10.0,19.0,82,0.00,,,0.01,119.000000,,2013-04-14 23:02:00,
2013-04-14 23:12:00,37.0,31.0,-100.00,East,82,9.0,19.0,80,0.00,,,0.01,89.000000,,2013-04-14 23:12:00,
2013-04-14 23:33:00,37.0,31.0,-100.00,East,82,9.0,19.0,80,0.00,,,0.01,89.000000,,2013-04-14 23:33:00,
2013-04-14 23:43:00,37.0,31.0,-100.00,East,82,9.0,19.0,80,0.00,,,0.01,89.000000,,2013-04-14 23:43:00,
2013-04-14 23:53:00,37.0,31.0,-100.00,East,82,9.0,19.0,80,0.00,,,0.01,89.000000,,2013-04-14 23:53:00,